TimeCST,TemperatureF,Dew PointF,Humidity,Sea Level PressureIn,VisibilityMPH,Wind Direction,Wind SpeedMPH,Gust SpeedMPH,PrecipitationIn,Events,Conditions,WindDirDegrees,DateUTC
12:53 AM,46.9,37.9,71,30.27,10.0,North,5.8,-,N/A,,Clear,350,2013-03-02 06:53:00
1:53 AM,42.1,35.1,76,30.28,-9999.0,North,8.1,-,N/A,,Clear,350,2013-03-02 07:53:00
2:53 AM,43.0,33.1,68,30.27,-9999.0,NW,4.6,-,N/A,,Clear,320,2013-03-02 08:53:00
3:53 AM,42.1,34.0,73,30.27,-9999.0,NNW,9.2,-,N/A,,Partly Cloudy,330,2013-03-02 09:53:00
4:53 AM,46.0,34.0,63,30.30,-9999.0,North,12.7,-,N/A,,Clear,360,2013-03-02 10:53:00
5:53 AM,44.1,32.0,63,30.32,-9999.0,North,10.4,-,N/A,,Clear,350,2013-03-02 11:53:00
6:53 AM,42.1,32.0,67,30.35,-9999.0,NNW,10.4,-,N/A,,Clear,340,2013-03-02 12:53:00
7:53 AM,46.9,33.1,59,30.38,-9999.0,North,16.1,-,N/A,,Clear,350,2013-03-02 13:53:00
8:53 AM,50.0,30.9,48,30.40,-9999.0,North,15.0,-,N/A,,Clear,360,2013-03-02 14:53:00
9:53 AM,52.0,30.0,43,30.41,-9999.0,NNW,16.1,25.3,N/A,,Clear,330,2013-03-02 15:53:00
10:53 AM,55.9,23.0,28,30.40,-9999.0,North,23.0,28.8,N/A,,Clear,350,2013-03-02 16:53:00
11:53 AM,57.9,19.9,23,30.39,10.0,NNW,24.2,31.1,N/A,,Clear,340,2013-03-02 17:53:00
12:53 PM,59.0,19.9,22,30.35,10.0,NNW,21.9,31.1,N/A,,Clear,330,2013-03-02 18:53:00
1:53 PM,61.0,19.9,21,30.32,10.0,NNW,25.3,32.2,N/A,,Clear,330,2013-03-02 19:53:00
2:53 PM,62.1,19.0,19,30.30,10.0,NW,23.0,29.9,N/A,,Clear,320,2013-03-02 20:53:00
3:53 PM,63.0,19.0,18,30.29,10.0,NNW,19.6,29.9,N/A,,Clear,330,2013-03-02 21:53:00
4:53 PM,62.1,17.1,18,30.28,10.0,North,20.7,27.6,N/A,,Clear,350,2013-03-02 22:53:00
5:53 PM,59.0,18.0,20,30.29,10.0,NNW,17.3,25.3,N/A,,Clear,340,2013-03-02 23:53:00
6:53 PM,53.1,19.0,26,30.31,10.0,North,9.2,-,N/A,,Clear,350,2013-03-03 00:53:00
7:53 PM,48.9,21.0,33,30.31,10.0,NNE,5.8,-,N/A,,Clear,30,2013-03-03 01:53:00
8:53 PM,46.9,23.0,39,30.32,10.0,ENE,4.6,-,N/A,,Clear,70,2013-03-03 02:53:00
9:53 PM,46.0,23.0,40,30.32,10.0,East,6.9,-,N/A,,Clear,80,2013-03-03 03:53:00
10:53 PM,46.0,24.1,42,30.32,10.0,East,6.9,-,N/A,,Clear,100,2013-03-03 04:53:00
11:53 PM,46.9,25.0,42,30.30,-9999.0,SE,4.6,-,N/A,,Clear,130,2013-03-03 05:53:00